Zurück zum Katalog

PEGASUS DEB

AktivPO
NORAD 25445·DEBRIS·🇺🇸 United States

Gestartet May 19, 1994 von Vandenberg Space Force Base

Loading…

Nächste Überflüge (nächste 24 Stunden)

TLE

AktuellSource: Space-Track

Epoche: Sep 14, 2026, 08:13 UTC

1 25445U 94029ADZ 26257.34258738  .00001090  00000-0  14725-3 0  9998
2 25445  81.9877  19.5150 0128752  13.0564  15.1884 14.72562618549600

Verfolge PEGASUS DEB in Echtzeit mit AllMySat

Download on the App Store